Time,TemperatureF,DewpointF,PressureIn,WindDirection,WindDirectionDegrees,WindSpeedMPH,WindSpeedGustMPH,Humidity,HourlyPrecipIn,Conditions,Clouds,dailyrainin,SoftwareType,DateUTC
2013-04-15 00:00:00,47.4,36.2,30.07,NE,34,0.0,0.0,65,0.00,CLR,SKC,0.00,WeatherDisplay:10.37,2013-04-15 04:00:00,
2013-04-15 00:05:00,47.8,36.2,30.08,NE,34,0.0,0.0,64,0.00,CLR,SKC,0.00,WeatherDisplay:10.37,2013-04-15 04:05:00,
2013-04-15 00:10:00,48.1,36.5,30.08,NE,34,0.0,0.0,64,0.00,CLR,SKC,0.00,WeatherDisplay:10.37,2013-04-15 04:10:00,
2013-04-15 00:15:00,48.3,37.5,30.08,NE,34,0.0,0.0,66,0.00,CLR,SKC,0.00,WeatherDisplay:10.37,2013-04-15 04:15:00,
2013-04-15 00:20:00,48.3,37.5,30.08,NE,34,0.0,0.0,66,0.00,CLR,SKC,0.00,WeatherDisplay:10.37,2013-04-15 04:20:00,
2013-04-15 00:25:00,48.3,37.5,30.08,NE,34,0.0,0.0,66,0.00,CLR,SKC,0.00,WeatherDisplay:10.37,2013-04-15 04:25:00,
2013-04-15 00:30:00,48.3,36.3,30.07,NE,34,0.0,0.0,63,0.00,CLR,SKC,0.00,WeatherDisplay:10.37,2013-04-15 04:30:00,
2013-04-15 00:35:00,48.3,36.7,30.07,NE,34,0.0,0.0,64,0.00,CLR,SKC,0.00,WeatherDisplay:10.37,2013-04-15 04:35:00,
2013-04-15 00:40:00,48.3,37.1,30.07,NE,34,1.1,0.0,65,0.00,CLR,SKC,0.00,WeatherDisplay:10.37,2013-04-15 04:40:00,
2013-04-15 00:45:00,48.2,36.2,30.07,NE,34,0.0,0.0,63,0.00,CLR,SKC,0.00,WeatherDisplay:10.37,2013-04-15 04:45:00,
2013-04-15 00:50:00,48.2,36.6,30.07,NE,34,0.0,0.0,64,0.00,CLR,SKC,0.00,WeatherDisplay:10.37,2013-04-15 04:50:00,
2013-04-15 00:55:00,48.1,36.1,30.07,NE,34,0.0,0.0,63,0.00,CLR,SKC,0.00,WeatherDisplay:10.37,2013-04-15 04:55:00,
2013-04-15 01:00:00,48.0,36.4,30.07,NE,34,0.0,0.0,64,0.00,CLR,SKC,0.00,WeatherDisplay:10.37,2013-04-15 05:00:00,
2013-04-15 01:05:00,47.9,36.3,30.07,NE,34,0.0,0.0,64,0.00,CLR,SKC,0.00,WeatherDisplay:10.37,2013-04-15 05:05:00,
2013-04-15 01:10:00,47.9,36.7,30.07,NE,34,0.0,0.0,65,0.00,CLR,SKC,0.00,WeatherDisplay:10.37,2013-04-15 05:10:00,
2013-04-15 01:15:00,47.7,36.1,30.07,NE,34,0.0,0.0,64,0.00,CLR,SKC,0.00,WeatherDisplay:10.37,2013-04-15 05:15:00,
2013-04-15 01:20:00,47.6,36.4,30.07,NE,34,0.0,0.0,65,0.00,CLR,SKC,0.00,WeatherDisplay:10.37,2013-04-15 05:20:00,
2013-04-15 01:25:00,47.4,36.2,30.07,NE,34,0.0,0.0,65,0.00,CLR,SKC,0.00,WeatherDisplay:10.37,2013-04-15 05:25:00,
2013-04-15 01:30:00,47.3,36.9,30.08,NE,34,0.0,0.0,67,0.00,CLR,SKC,0.00,WeatherDisplay:10.37,2013-04-15 05:30:00,
2013-04-15 01:35:00,47.1,36.3,30.07,NE,34,0.0,0.0,66,0.00,CLR,SKC,0.00,WeatherDisplay:10.37,2013-04-15 05:35:00,
2013-04-15 01:40:00,47.0,36.2,30.07,NE,34,0.0,0.0,66,0.00,CLR,SKC,0.00,WeatherDisplay:10.37,2013-04-15 05:40:00,
2013-04-15 01:45:00,46.9,36.1,30.08,NE,34,0.0,0.0,66,0.00,CLR,SKC,0.00,WeatherDisplay:10.37,2013-04-15 05:45:00,
2013-04-15 01:50:00,46.7,35.9,30.08,NE,34,0.0,0.0,66,0.00,CLR,SKC,0.00,WeatherDisplay:10.37,2013-04-15 05:50:00,
2013-04-15 01:55:00,46.6,35.8,30.08,NE,34,0.0,0.0,66,0.00,CLR,SKC,0.00,WeatherDisplay:10.37,2013-04-15 05:55:00,
2013-04-15 02:00:00,46.4,36.0,30.08,NE,34,0.0,0.0,67,0.00,CLR,SKC,0.00,WeatherDisplay:10.37,2013-04-15 06:00:00,
2013-04-15 02:05:00,46.3,35.9,30.08,NE,34,0.0,0.0,67,0.00,CLR,SKC,0.00,WeatherDisplay:10.37,2013-04-15 06:05:00,
2013-04-15 02:10:00,46.2,35.8,30.09,NE,34,0.0,0.0,67,0.00,CLR,SKC,0.00,WeatherDisplay:10.37,2013-04-15 06:10:00,
2013-04-15 02:15:00,46.3,35.2,30.08,NE,34,2.3,2.3,65,0.00,CLR,SKC,0.00,WeatherDisplay:10.37,2013-04-15 06:15:00,
2013-04-15 02:20:00,46.6,35.1,30.08,SSW,201,3.4,3.4,64,0.00,CLR,SKC,0.00,WeatherDisplay:10.37,2013-04-15 06:20:00,
2013-04-15 02:25:00,47.0,35.0,30.09,SSW,201,0.0,0.0,63,0.00,CLR,SKC,0.00,WeatherDisplay:10.37,2013-04-15 06:25:00,
2013-04-15 02:30:00,47.3,35.3,30.09,SSW,207,1.1,0.0,63,0.00,CLR,SKC,0.00,WeatherDisplay:10.37,2013-04-15 06:30:00,
2013-04-15 02:35:00,47.5,35.1,30.09,SSW,207,3.4,3.4,62,0.00,CLR,SKC,0.00,WeatherDisplay:10.37,2013-04-15 06:35:00,
2013-04-15 02:40:00,47.7,34.9,30.09,SSW,205,0.0,0.0,61,0.00,CLR,SKC,0.00,WeatherDisplay:10.37,2013-04-15 06:40:00,
2013-04-15 02:45:00,47.8,35.0,30.09,SSW,205,0.0,0.1,61,0.00,CLR,SKC,0.00,WeatherDisplay:10.37,2013-04-15 06:45:00,
2013-04-15 02:50:00,47.9,35.1,30.08,SSW,205,0.0,0.0,61,0.00,CLR,SKC,0.00,WeatherDisplay:10.37,2013-04-15 06:50:00,
2013-04-15 02:55:00,47.9,35.5,30.08,SSW,205,0.0,0.0,62,0.00,CLR,SKC,0.00,WeatherDisplay:10.37,2013-04-15 06:55:00,
2013-04-15 03:00:00,47.9,35.5,30.09,SSW,205,0.0,0.0,62,0.00,CLR,SKC,0.00,WeatherDisplay:10.37,2013-04-15 07:00:00,
2013-04-15 03:05:00,47.8,35.8,30.08,SSW,205,0.0,0.0,63,0.00,CLR,SKC,0.00,WeatherDisplay:10.37,2013-04-15 07:05:00,
2013-04-15 03:41:00,46.9,37.3,30.10,SSW,205,0.0,0.0,69,0.00,CLR,SKC,0.00,WeatherDisplay:10.37,2013-04-15 07:41:00,
2013-04-15 03:46:00,46.8,37.2,30.10,SSW,205,0.0,0.0,69,0.00,CLR,SKC,0.00,WeatherDisplay:10.37,2013-04-15 07:46:00,
2013-04-15 03:48:00,46.8,36.8,30.10,SSW,205,0.0,0.0,68,0.00,CLR,SKC,0.00,WeatherDisplay:10.37,2013-04-15 07:48:00,
2013-04-15 03:51:00,46.7,37.1,30.10,SSW,205,0.0,0.0,69,0.00,CLR,SKC,0.00,WeatherDisplay:10.37,2013-04-15 07:51:00,
2013-04-15 03:56:00,46.7,38.1,30.10,SSW,205,0.0,0.0,72,0.00,CLR,SKC,0.00,WeatherDisplay:10.37,2013-04-15 07:56:00,
2013-04-15 04:01:00,46.7,37.8,30.10,SSW,205,0.0,0.0,71,0.00,CLR,SKC,0.00,WeatherDisplay:10.37,2013-04-15 08:01:00,
2013-04-15 04:06:00,46.6,37.7,30.10,SSW,205,0.0,0.0,71,0.00,CLR,SKC,0.00,WeatherDisplay:10.37,2013-04-15 08:06:00,
2013-04-15 04:11:00,46.5,36.9,30.10,SSW,205,0.0,0.0,69,0.00,CLR,SKC,0.00,WeatherDisplay:10.37,2013-04-15 08:11:00,
2013-04-15 04:16:00,46.6,36.6,30.10,SSW,205,2.3,2.3,68,0.00,CLR,SKC,0.00,WeatherDisplay:10.37,2013-04-15 08:16:00,
2013-04-15 04:21:00,46.9,36.1,30.10,SSW,205,3.4,3.4,66,0.00,CLR,SKC,0.00,WeatherDisplay:10.37,2013-04-15 08:21:00,
2013-04-15 04:26:00,47.3,36.1,30.10,SSW,205,1.1,1.1,65,0.00,CLR,SKC,0.00,WeatherDisplay:10.37,2013-04-15 08:26:00,
2013-04-15 04:31:00,47.6,36.0,30.10,SSW,204,0.0,0.0,64,0.00,CLR,SKC,0.00,WeatherDisplay:10.37,2013-04-15 08:31:00,
2013-04-15 04:35:00,47.8,36.2,30.10,SSW,204,0.0,0.0,64,0.00,CLR,SKC,0.00,WeatherDisplay:10.37,2013-04-15 08:35:00,
2013-04-15 04:40:00,47.9,35.5,30.10,SSW,205,0.0,2.0,62,0.00,CLR,SKC,0.00,WeatherDisplay:10.37,2013-04-15 08:40:00,
2013-04-15 04:45:00,48.2,35.4,30.10,SW,227,3.4,3.4,61,0.00,CLR,SKC,0.00,WeatherDisplay:10.37,2013-04-15 08:45:00,
2013-04-15 04:50:00,48.4,35.6,30.10,SW,219,0.0,2.0,61,0.00,CLR,SKC,0.00,WeatherDisplay:10.37,2013-04-15 08:50:00,
2013-04-15 04:55:00,48.6,35.3,30.10,SW,223,3.4,3.4,60,0.00,CLR,SKC,0.00,WeatherDisplay:10.37,2013-04-15 08:55:00,
2013-04-15 05:00:00,48.7,35.0,30.11,SW,222,1.1,1.1,59,0.00,CLR,SKC,0.00,WeatherDisplay:10.37,2013-04-15 09:00:00,
2013-04-15 05:05:00,48.8,35.1,30.11,SW,221,0.0,0.0,59,0.00,CLR,SKC,0.00,WeatherDisplay:10.37,2013-04-15 09:05:00,
2013-04-15 05:10:00,48.8,35.1,30.11,SW,221,1.0,0.0,59,0.00,CLR,SKC,0.00,WeatherDisplay:10.37,2013-04-15 09:10:00,
2013-04-15 05:15:00,48.8,35.1,30.11,SW,220,1.1,1.1,59,0.00,CLR,SKC,0.00,WeatherDisplay:10.37,2013-04-15 09:15:00,
2013-04-15 05:20:00,48.7,35.0,30.11,SW,220,1.0,1.0,59,0.00,CLR,SKC,0.00,WeatherDisplay:10.37,2013-04-15 09:20:00,
2013-04-15 05:25:00,48.7,34.6,30.12,SW,220,0.0,0.0,58,0.00,CLR,SKC,0.00,WeatherDisplay:10.37,2013-04-15 09:25:00,
2013-04-15 05:30:00,48.7,34.6,30.12,SW,220,0.0,1.0,58,0.00,CLR,SKC,0.00,WeatherDisplay:10.37,2013-04-15 09:30:00,
2013-04-15 05:35:00,48.7,34.6,30.12,SW,214,1.0,5.0,58,0.00,CLR,SKC,0.00,WeatherDisplay:10.37,2013-04-15 09:35:00,
2013-04-15 05:40:00,48.8,34.2,30.13,South,187,0.0,0.0,57,0.00,CLR,SKC,0.00,WeatherDisplay:10.37,2013-04-15 09:40:00,
2013-04-15 05:45:00,48.8,34.7,30.13,South,187,3.4,3.4,58,0.00,CLR,SKC,0.00,WeatherDisplay:10.37,2013-04-15 09:45:00,
2013-04-15 05:50:00,48.7,34.1,30.14,South,187,0.0,0.0,57,0.00,CLR,SKC,0.00,WeatherDisplay:10.37,2013-04-15 09:50:00,
2013-04-15 05:55:00,48.6,34.0,30.14,South,187,0.0,0.0,57,0.00,CLR,SKC,0.00,WeatherDisplay:10.37,2013-04-15 09:55:00,
2013-04-15 06:00:00,48.5,34.4,30.14,South,187,0.0,0.0,58,0.00,CLR,SKC,0.00,WeatherDisplay:10.37,2013-04-15 10:00:00,
2013-04-15 06:05:00,48.3,34.6,30.14,South,187,0.0,0.0,59,0.00,CLR,SKC,0.00,WeatherDisplay:10.37,2013-04-15 10:05:00,
2013-04-15 06:10:00,48.2,34.5,30.14,South,187,0.0,0.0,59,0.00,CLR,SKC,0.00,WeatherDisplay:10.37,2013-04-15 10:10:00,
2013-04-15 06:15:00,48.0,34.8,30.14,South,187,0.0,0.0,60,0.00,CLR,SKC,0.00,WeatherDisplay:10.37,2013-04-15 10:15:00,
2013-04-15 06:20:00,47.8,34.6,30.14,South,187,0.0,0.0,60,0.00,CLR,SKC,0.00,WeatherDisplay:10.37,2013-04-15 10:20:00,
2013-04-15 06:25:00,47.6,34.8,30.14,South,187,1.0,0.0,61,0.00,CLR,SKC,0.00,WeatherDisplay:10.37,2013-04-15 10:25:00,
2013-04-15 06:30:00,47.6,34.4,30.14,South,187,0.0,0.0,60,0.00,CLR,SKC,0.00,WeatherDisplay:10.37,2013-04-15 10:30:00,
2013-04-15 06:35:00,47.5,34.7,30.15,South,186,0.0,0.0,61,0.00,CLR,SKC,0.00,WeatherDisplay:10.37,2013-04-15 10:35:00,
2013-04-15 06:40:00,47.5,34.7,30.15,South,186,0.0,0.0,61,0.00,CLR,SKC,0.00,WeatherDisplay:10.37,2013-04-15 10:40:00,
2013-04-15 06:45:00,47.5,34.7,30.15,South,186,0.0,0.0,61,0.00,CLR,SKC,0.00,WeatherDisplay:10.37,2013-04-15 10:45:00,
2013-04-15 06:50:00,47.4,34.6,30.15,South,186,1.1,0.0,61,0.00,CLR,SKC,0.00,WeatherDisplay:10.37,2013-04-15 10:50:00,
2013-04-15 06:55:00,47.3,34.5,30.15,South,186,0.0,0.0,61,0.00,CLR,SKC,0.00,WeatherDisplay:10.37,2013-04-15 10:55:00,
2013-04-15 07:00:00,47.4,34.2,30.16,SSW,207,3.4,3.4,60,0.00,CLR,SKC,0.00,WeatherDisplay:10.37,2013-04-15 11:00:00,
2013-04-15 07:05:00,47.5,34.3,30.16,SSW,207,2.3,2.3,60,0.00,CLR,SKC,0.00,WeatherDisplay:10.37,2013-04-15 11:05:00,
2013-04-15 07:10:00,47.8,34.6,30.16,SSW,207,0.0,0.0,60,0.00,CLR,SKC,0.00,WeatherDisplay:10.37,2013-04-15 11:10:00,
2013-04-15 07:15:00,47.9,34.7,30.16,SSW,200,0.0,0.0,60,0.00,CLR,SKC,0.00,WeatherDisplay:10.37,2013-04-15 11:15:00,
2013-04-15 07:20:00,48.1,34.9,30.16,SSW,200,0.0,0.0,60,0.00,CLR,SKC,0.00,WeatherDisplay:10.37,2013-04-15 11:20:00,
2013-04-15 07:25:00,48.1,35.3,30.16,SSW,200,0.0,0.0,61,0.00,CLR,SKC,0.00,WeatherDisplay:10.37,2013-04-15 11:25:00,
2013-04-15 07:30:00,48.2,34.5,30.17,SW,220,0.0,0.0,59,0.00,CLR,SKC,0.00,WeatherDisplay:10.37,2013-04-15 11:30:00,
2013-04-15 07:35:00,48.3,34.6,30.17,SW,220,1.1,0.0,59,0.00,CLR,SKC,0.00,WeatherDisplay:10.37,2013-04-15 11:35:00,
2013-04-15 07:40:00,48.4,35.1,30.17,SW,220,1.0,1.0,60,0.00,CLR,SKC,0.00,WeatherDisplay:10.37,2013-04-15 11:40:00,
2013-04-15 07:45:00,48.5,35.2,30.17,SW,220,1.1,1.1,60,0.00,CLR,SKC,0.00,WeatherDisplay:10.37,2013-04-15 11:45:00,
2013-04-15 07:50:00,48.7,35.4,30.18,SW,220,0.0,0.0,60,0.00,CLR,SKC,0.00,WeatherDisplay:10.37,2013-04-15 11:50:00,
2013-04-15 07:55:00,48.8,35.5,30.18,SW,220,0.0,0.0,60,0.00,CLR,SKC,0.00,WeatherDisplay:10.37,2013-04-15 11:55:00,
2013-04-15 08:00:00,48.9,35.6,30.18,SW,220,1.1,1.1,60,0.00,CLR,SKC,0.00,WeatherDisplay:10.37,2013-04-15 12:00:00,
2013-04-15 08:05:00,49.1,35.4,30.18,SW,220,1.1,0.0,59,0.00,CLR,SKC,0.00,WeatherDisplay:10.37,2013-04-15 12:05:00,
2013-04-15 08:10:00,49.3,35.6,30.18,SSW,194,2.3,2.3,59,0.00,CLR,SKC,0.00,WeatherDisplay:10.37,2013-04-15 12:10:00,
2013-04-15 08:15:00,49.5,35.8,30.18,SSW,194,1.1,0.0,59,0.00,CLR,SKC,0.00,WeatherDisplay:10.37,2013-04-15 12:15:00,
2013-04-15 08:20:00,49.6,35.8,30.19,SSW,202,0.0,0.0,59,0.00,CLR,SKC,0.00,WeatherDisplay:10.37,2013-04-15 12:20:00,
2013-04-15 08:25:00,49.9,36.6,30.18,SSW,201,0.0,0.0,60,0.00,CLR,SKC,0.00,WeatherDisplay:10.37,2013-04-15 12:25:00,
2013-04-15 08:30:00,50.2,36.0,30.18,South,184,3.4,3.4,58,0.00,CLR,SKC,0.00,WeatherDisplay:10.37,2013-04-15 12:30:00,
2013-04-15 08:35:00,50.4,36.6,30.18,SSW,205,1.1,1.1,59,0.00,CLR,SKC,0.00,WeatherDisplay:10.37,2013-04-15 12:35:00,
2013-04-15 08:40:00,50.6,36.8,30.18,SSW,208,3.4,3.4,59,0.00,CLR,SKC,0.00,WeatherDisplay:10.37,2013-04-15 12:40:00,
2013-04-15 08:45:00,50.9,36.6,30.18,West,272,1.1,1.1,58,0.00,CLR,SKC,0.00,WeatherDisplay:10.37,2013-04-15 12:45:00,
2013-04-15 08:50:00,51.2,36.9,30.19,SSW,210,1.0,1.0,58,0.00,CLR,SKC,0.00,WeatherDisplay:10.37,2013-04-15 12:50:00,
2013-04-15 08:55:00,51.4,36.7,30.19,South,183,2.3,2.3,57,0.00,CLR,SKC,0.00,WeatherDisplay:10.37,2013-04-15 12:55:00,
2013-04-15 09:00:00,51.5,37.6,30.18,South,186,1.1,0.0,59,0.00,CLR,SKC,0.00,WeatherDisplay:10.37,2013-04-15 13:00:00,
2013-04-15 09:05:00,51.7,37.4,30.18,SSW,201,2.3,2.3,58,0.00,CLR,SKC,0.00,WeatherDisplay:10.37,2013-04-15 13:05:00,
2013-04-15 09:10:00,51.7,36.9,30.18,South,173,4.6,4.6,57,0.00,CLR,SKC,0.00,WeatherDisplay:10.37,2013-04-15 13:10:00,
2013-04-15 09:15:00,51.7,38.7,30.18,SSW,201,0.0,0.0,61,0.00,CLR,SKC,0.00,WeatherDisplay:10.37,2013-04-15 13:15:00,
2013-04-15 09:20:00,51.7,38.7,30.18,SSW,200,2.3,2.3,61,0.00,CLR,SKC,0.00,WeatherDisplay:10.37,2013-04-15 13:20:00,
2013-04-15 09:25:00,51.5,38.9,30.18,SW,225,3.4,3.4,62,0.00,CLR,SKC,0.00,WeatherDisplay:10.37,2013-04-15 13:25:00,
2013-04-15 09:30:00,51.5,38.1,30.18,SSW,208,3.4,3.4,60,0.00,CLR,SKC,0.00,WeatherDisplay:10.37,2013-04-15 13:30:00,
2013-04-15 09:35:00,51.5,38.5,30.18,SSW,209,1.1,1.1,61,0.00,CLR,SKC,0.00,WeatherDisplay:10.37,2013-04-15 13:35:00,
2013-04-15 09:40:00,51.6,38.6,30.18,SSW,211,2.3,2.3,61,0.00,CLR,SKC,0.00,WeatherDisplay:10.37,2013-04-15 13:40:00,
2013-04-15 09:45:00,51.7,38.7,30.18,SSW,211,1.1,1.1,61,0.00,CLR,SKC,0.00,WeatherDisplay:10.37,2013-04-15 13:45:00,
2013-04-15 09:50:00,51.8,38.8,30.18,SSW,199,3.4,3.4,61,0.00,CLR,SKC,0.00,WeatherDisplay:10.37,2013-04-15 13:50:00,
2013-04-15 09:55:00,52.1,39.1,30.18,South,187,0.0,0.0,61,0.00,CLR,SKC,0.00,WeatherDisplay:10.37,2013-04-15 13:55:00,
2013-04-15 10:00:00,52.4,39.3,30.19,South,190,0.0,0.0,61,0.00,CLR,SKC,0.00,WeatherDisplay:10.37,2013-04-15 14:00:00,
2013-04-15 10:05:00,52.7,39.6,30.18,South,190,0.0,0.0,61,0.00,CLR,SKC,0.00,WeatherDisplay:10.37,2013-04-15 14:05:00,
2013-04-15 10:10:00,53.0,39.9,30.18,South,191,0.0,2.0,61,0.00,CLR,SKC,0.00,WeatherDisplay:10.37,2013-04-15 14:10:00,
2013-04-15 10:15:00,53.1,39.1,30.18,SSW,207,3.4,3.4,59,0.00,CLR,SKC,0.00,WeatherDisplay:10.37,2013-04-15 14:15:00,
2013-04-15 10:20:00,53.0,39.9,30.18,SSW,205,3.4,3.4,61,0.00,CLR,SKC,0.00,WeatherDisplay:10.37,2013-04-15 14:20:00,
2013-04-15 10:25:00,52.9,39.4,30.18,SSW,196,1.1,0.0,60,0.00,CLR,SKC,0.00,WeatherDisplay:10.37,2013-04-15 14:25:00,
2013-04-15 10:30:00,53.1,39.1,30.18,SSW,196,0.0,0.0,59,0.00,CLR,SKC,0.00,WeatherDisplay:10.37,2013-04-15 14:30:00,
2013-04-15 10:35:00,53.2,39.7,30.18,SSW,209,3.4,3.4,60,0.00,CLR,SKC,0.00,WeatherDisplay:10.37,2013-04-15 14:35:00,
2013-04-15 10:40:00,53.3,40.2,30.18,SSW,198,1.1,0.0,61,0.00,CLR,SKC,0.00,WeatherDisplay:10.37,2013-04-15 14:40:00,
2013-04-15 10:45:00,53.3,39.8,30.18,SSW,194,2.0,2.0,60,0.00,CLR,SKC,0.00,WeatherDisplay:10.37,2013-04-15 14:45:00,
2013-04-15 10:50:00,53.5,39.9,30.18,SSW,194,1.1,1.1,60,0.00,CLR,SKC,0.00,WeatherDisplay:10.37,2013-04-15 14:50:00,
2013-04-15 10:55:00,53.6,40.5,30.18,South,191,2.3,2.3,61,0.00,CLR,SKC,0.00,WeatherDisplay:10.37,2013-04-15 14:55:00,
2013-04-15 11:00:00,53.7,39.7,30.18,South,175,0.0,0.0,59,0.00,CLR,SKC,0.00,WeatherDisplay:10.37,2013-04-15 15:00:00,
2013-04-15 11:05:00,53.8,40.7,30.18,South,190,1.1,0.0,61,0.00,CLR,SKC,0.00,WeatherDisplay:10.37,2013-04-15 15:05:00,
2013-04-15 11:10:00,54.0,40.8,30.17,WSW,255,1.1,1.1,61,0.00,CLR,SKC,0.00,WeatherDisplay:10.37,2013-04-15 15:10:00,
2013-04-15 11:15:00,54.3,41.6,30.17,SSW,207,2.3,2.3,62,0.00,CLR,SKC,0.00,WeatherDisplay:10.37,2013-04-15 15:15:00,
2013-04-15 11:20:00,54.6,41.0,30.17,SSW,207,1.1,1.1,60,0.00,CLR,SKC,0.00,WeatherDisplay:10.37,2013-04-15 15:20:00,
2013-04-15 11:25:00,54.9,40.8,30.17,SSW,192,3.4,3.4,59,0.00,CLR,SKC,0.00,WeatherDisplay:10.37,2013-04-15 15:25:00,
2013-04-15 11:30:00,55.0,40.9,30.17,South,188,3.4,3.4,59,0.00,CLR,SKC,0.00,WeatherDisplay:10.37,2013-04-15 15:30:00,
2013-04-15 11:35:00,55.1,41.5,30.16,South,176,1.1,1.1,60,0.00,CLR,SKC,0.00,WeatherDisplay:10.37,2013-04-15 15:35:00,
2013-04-15 11:40:00,55.2,41.1,30.16,South,185,3.4,3.4,59,0.00,CLR,SKC,0.00,WeatherDisplay:10.37,2013-04-15 15:40:00,
2013-04-15 11:45:00,55.0,40.9,30.16,SW,231,2.0,2.0,59,0.00,CLR,SKC,0.00,WeatherDisplay:10.37,2013-04-15 15:45:00,
2013-04-15 11:50:00,55.0,41.4,30.16,SSW,200,1.1,1.1,60,0.00,CLR,SKC,0.00,WeatherDisplay:10.37,2013-04-15 15:50:00,
2013-04-15 11:55:00,55.3,42.5,30.16,South,187,3.4,3.4,62,0.00,CLR,SKC,0.00,WeatherDisplay:10.37,2013-04-15 15:55:00,
2013-04-15 12:00:00,55.9,43.5,30.16,South,173,4.0,4.0,63,0.00,CLR,SKC,0.00,WeatherDisplay:10.37,2013-04-15 16:00:00,
2013-04-15 12:05:00,56.4,43.5,30.15,South,187,5.8,5.8,62,0.00,CLR,SKC,0.00,WeatherDisplay:10.37,2013-04-15 16:05:00,
2013-04-15 12:10:00,57.1,42.5,30.15,South,175,3.4,3.4,58,0.00,CLR,SKC,0.00,WeatherDisplay:10.37,2013-04-15 16:10:00,
2013-04-15 12:15:00,57.6,42.9,30.15,ENE,71,1.1,0.0,58,0.00,CLR,SKC,0.00,WeatherDisplay:10.37,2013-04-15 16:15:00,
2013-04-15 12:20:00,57.8,42.7,30.16,South,188,3.4,3.4,57,0.00,CLR,SKC,0.00,WeatherDisplay:10.37,2013-04-15 16:20:00,
2013-04-15 12:25:00,57.3,42.2,30.16,South,171,2.3,2.3,57,0.00,CLR,SKC,0.00,WeatherDisplay:10.37,2013-04-15 16:25:00,
2013-04-15 12:30:00,57.0,42.8,30.16,South,172,3.4,3.4,59,0.00,CLR,SKC,0.00,WeatherDisplay:10.37,2013-04-15 16:30:00,
2013-04-15 12:35:00,57.6,43.4,30.15,South,191,5.0,5.0,59,0.00,CLR,SKC,0.00,WeatherDisplay:10.37,2013-04-15 16:35:00,
2013-04-15 12:40:00,58.2,43.0,30.15,SSW,208,1.1,0.0,57,0.00,CLR,SKC,0.00,WeatherDisplay:10.37,2013-04-15 16:40:00,
2013-04-15 12:45:00,59.1,45.7,30.15,SW,215,4.6,4.6,61,0.00,CLR,SKC,0.00,WeatherDisplay:10.37,2013-04-15 16:45:00,
2013-04-15 12:50:00,59.6,43.9,30.15,SSE,167,4.6,4.6,56,0.00,CLR,SKC,0.00,WeatherDisplay:10.37,2013-04-15 16:50:00,
2013-04-15 12:55:00,59.5,43.8,30.15,ENE,59,4.6,4.6,56,0.00,CLR,SKC,0.00,WeatherDisplay:10.37,2013-04-15 16:55:00,
2013-04-15 13:00:00,59.3,44.5,30.15,ESE,115,2.3,2.3,58,0.00,CLR,SKC,0.00,WeatherDisplay:10.37,2013-04-15 17:00:00,
2013-04-15 13:05:00,59.4,45.1,30.15,SSE,158,1.1,1.1,59,0.00,CLR,SKC,0.00,WeatherDisplay:10.37,2013-04-15 17:05:00,
2013-04-15 13:10:00,59.5,44.7,30.15,SSW,194,3.4,3.4,58,0.00,CLR,SKC,0.00,WeatherDisplay:10.37,2013-04-15 17:10:00,
2013-04-15 13:15:00,59.6,43.9,30.15,SSW,194,0.0,0.0,56,0.00,CLR,SKC,0.00,WeatherDisplay:10.37,2013-04-15 17:15:00,
2013-04-15 13:20:00,60.2,44.9,30.15,South,183,0.0,0.0,57,0.00,CLR,SKC,0.00,WeatherDisplay:10.37,2013-04-15 17:20:00,
2013-04-15 13:21:00,60.3,45.5,30.15,South,183,0.0,0.0,58,0.00,CLR,SKC,0.00,WeatherDisplay:10.37,2013-04-15 17:21:00,
2013-04-15 13:25:00,61.1,45.7,30.15,SSE,167,2.3,0.0,57,0.00,CLR,SKC,0.00,WeatherDisplay:10.37,2013-04-15 17:25:00,
2013-04-15 13:30:00,61.9,46.0,30.15,South,190,3.4,3.4,56,0.00,CLR,SKC,0.00,WeatherDisplay:10.37,2013-04-15 17:30:00,
2013-04-15 13:35:00,62.0,45.6,30.14,SSW,192,2.3,2.3,55,0.00,CLR,SKC,0.00,WeatherDisplay:10.37,2013-04-15 17:35:00,
2013-04-15 13:40:00,62.2,46.3,30.14,South,185,3.4,3.4,56,0.00,CLR,SKC,0.00,WeatherDisplay:10.37,2013-04-15 17:40:00,
2013-04-15 13:45:00,63.1,47.1,30.14,SSW,197,3.4,3.4,56,0.00,CLR,SKC,0.00,WeatherDisplay:10.37,2013-04-15 17:45:00,
2013-04-15 13:50:00,63.2,46.8,30.14,South,176,1.1,0.0,55,0.00,CLR,SKC,0.00,WeatherDisplay:10.37,2013-04-15 17:50:00,
2013-04-15 13:55:00,63.0,46.1,30.14,South,180,1.1,1.1,54,0.00,CLR,SKC,0.00,WeatherDisplay:10.37,2013-04-15 17:55:00,
2013-04-15 14:00:00,62.8,46.4,30.14,South,191,1.0,3.0,55,0.00,CLR,SKC,0.00,WeatherDisplay:10.37,2013-04-15 18:00:00,
2013-04-15 14:05:00,62.6,47.2,30.14,SSW,193,1.0,4.0,57,0.00,CLR,SKC,0.00,WeatherDisplay:10.37,2013-04-15 18:05:00,
2013-04-15 14:10:00,62.6,47.1,30.14,SSE,167,4.6,4.6,57,0.00,CLR,SKC,0.00,WeatherDisplay:10.37,2013-04-15 18:10:00,
2013-04-15 14:15:00,62.5,46.6,30.14,NE,55,3.0,10.0,56,0.00,CLR,SKC,0.00,WeatherDisplay:10.37,2013-04-15 18:15:00,
2013-04-15 14:20:00,62.6,48.5,30.13,SSE,161,1.1,0.0,60,0.00,CLR,SKC,0.00,WeatherDisplay:10.37,2013-04-15 18:20:00,
2013-04-15 14:25:00,63.1,49.4,30.13,South,180,0.0,3.0,61,0.00,CLR,SKC,0.00,WeatherDisplay:10.37,2013-04-15 18:25:00,
2013-04-15 14:29:00,64.1,50.4,30.13,SSW,197,2.3,2.3,61,0.00,CLR,SKC,0.00,WeatherDisplay:10.37,2013-04-15 18:29:00,
2013-04-15 14:34:00,65.2,50.5,30.13,NE,35,3.4,3.4,59,0.00,CLR,SKC,0.00,WeatherDisplay:10.37,2013-04-15 18:34:00,
2013-04-15 14:39:00,65.8,49.7,30.13,East,83,3.4,3.4,56,0.00,CLR,SKC,0.00,WeatherDisplay:10.37,2013-04-15 18:39:00,
2013-04-15 14:44:00,66.1,47.4,30.13,South,182,3.4,3.4,51,0.00,CLR,SKC,0.00,WeatherDisplay:10.37,2013-04-15 18:44:00,
2013-04-15 14:49:00,65.5,48.4,30.13,ENE,71,4.6,4.6,54,0.00,CLR,SKC,0.00,WeatherDisplay:10.37,2013-04-15 18:49:00,
2013-04-15 14:54:00,65.3,48.7,30.13,ENE,78,6.9,6.9,55,0.00,CLR,SKC,0.00,WeatherDisplay:10.37,2013-04-15 18:54:00,
2013-04-15 14:59:00,65.4,47.8,30.13,East,87,6.9,6.9,53,0.00,CLR,SKC,0.00,WeatherDisplay:10.37,2013-04-15 18:59:00,
2013-04-15 15:04:00,65.8,49.2,30.12,SSW,193,5.8,5.8,55,0.00,CLR,SKC,0.00,WeatherDisplay:10.37,2013-04-15 19:04:00,
2013-04-15 15:09:00,65.8,48.2,30.12,ENE,70,6.9,6.9,53,0.00,CLR,SKC,0.00,WeatherDisplay:10.37,2013-04-15 19:09:00,
2013-04-15 15:14:00,65.8,49.2,30.12,ESE,115,8.0,8.0,55,0.00,CLR,SKC,0.00,WeatherDisplay:10.37,2013-04-15 19:14:00,
2013-04-15 15:19:00,66.0,48.9,30.12,SSE,156,5.8,5.8,54,0.00,CLR,SKC,0.00,WeatherDisplay:10.37,2013-04-15 19:19:00,
2013-04-15 15:24:00,66.6,49.4,30.12,NNE,24,8.1,8.1,54,0.00,CLR,SKC,0.00,WeatherDisplay:10.37,2013-04-15 19:24:00,
2013-04-15 15:29:00,66.6,48.4,30.13,NNE,15,8.1,8.1,52,0.00,CLR,SKC,0.00,WeatherDisplay:10.37,2013-04-15 19:29:00,
2013-04-15 15:34:00,65.6,48.0,30.13,ENE,67,5.8,5.8,53,0.00,CLR,SKC,0.00,WeatherDisplay:10.37,2013-04-15 19:34:00,
2013-04-15 15:39:00,65.0,47.9,30.13,NE,52,6.9,6.9,54,0.00,CLR,SKC,0.00,WeatherDisplay:10.37,2013-04-15 19:39:00,
2013-04-15 15:44:00,64.5,47.0,30.13,NE,48,9.2,9.2,53,0.00,CLR,SKC,0.00,WeatherDisplay:10.37,2013-04-15 19:44:00,
2013-04-15 15:49:00,63.9,47.9,30.13,ENE,65,3.4,3.4,56,0.00,CLR,SKC,0.00,WeatherDisplay:10.37,2013-04-15 19:49:00,
2013-04-15 15:54:00,63.7,47.2,30.13,SSW,207,4.6,4.6,55,0.00,CLR,SKC,0.00,WeatherDisplay:10.37,2013-04-15 19:54:00,
2013-04-15 15:57:00,63.5,47.5,30.13,SSE,150,10.3,10.3,56,0.00,CLR,SKC,0.00,WeatherDisplay:10.37,2013-04-15 19:57:00,
2013-04-15 16:01:00,63.6,47.6,30.12,ESE,113,3.4,3.4,56,0.00,CLR,SKC,0.00,WeatherDisplay:10.37,2013-04-15 20:01:00,
2013-04-15 16:02:00,63.6,48.1,30.12,SSW,202,5.8,5.8,57,0.00,CLR,SKC,0.00,WeatherDisplay:10.37,2013-04-15 20:02:00,
2013-04-15 16:07:00,63.8,47.8,30.12,ENE,59,6.9,6.9,56,0.00,CLR,SKC,0.00,WeatherDisplay:10.37,2013-04-15 20:07:00,
2013-04-15 16:12:00,63.8,48.3,30.12,NE,42,4.6,4.6,57,0.00,CLR,SKC,0.00,WeatherDisplay:10.37,2013-04-15 20:12:00,
2013-04-15 16:17:00,63.8,47.8,30.12,South,183,4.0,4.0,56,0.00,CLR,SKC,0.00,WeatherDisplay:10.37,2013-04-15 20:17:00,
2013-04-15 16:22:00,63.7,47.7,30.12,South,187,2.3,2.3,56,0.00,CLR,SKC,0.00,WeatherDisplay:10.37,2013-04-15 20:22:00,
2013-04-15 16:27:00,63.5,47.5,30.12,SSW,200,4.6,4.6,56,0.00,CLR,SKC,0.00,WeatherDisplay:10.37,2013-04-15 20:27:00,
2013-04-15 16:32:00,63.3,47.3,30.12,SW,220,2.0,2.0,56,0.00,CLR,SKC,0.00,WeatherDisplay:10.37,2013-04-15 20:32:00,
2013-04-15 16:37:00,63.1,48.1,30.12,SW,231,2.3,2.3,58,0.00,CLR,SKC,0.00,WeatherDisplay:10.37,2013-04-15 20:37:00,
2013-04-15 16:42:00,62.9,47.9,30.12,South,178,4.0,4.0,58,0.00,CLR,SKC,0.00,WeatherDisplay:10.37,2013-04-15 20:42:00,
2013-04-15 16:47:00,62.8,47.8,30.12,SSW,202,4.6,4.6,58,0.00,CLR,SKC,0.00,WeatherDisplay:10.37,2013-04-15 20:47:00,
2013-04-15 16:52:00,62.7,47.7,30.11,South,178,4.0,4.0,58,0.00,CLR,SKC,0.00,WeatherDisplay:10.37,2013-04-15 20:52:00,
2013-04-15 16:57:00,62.7,48.2,30.11,SSW,197,3.4,3.4,59,0.00,CLR,SKC,0.00,WeatherDisplay:10.37,2013-04-15 20:57:00,
2013-04-15 17:02:00,62.9,48.3,30.11,South,190,3.4,3.4,59,0.00,CLR,SKC,0.00,WeatherDisplay:10.37,2013-04-15 21:02:00,
2013-04-15 17:07:00,63.3,48.3,30.11,South,184,3.4,3.4,58,0.00,CLR,SKC,0.00,WeatherDisplay:10.37,2013-04-15 21:07:00,
2013-04-15 17:12:00,63.6,48.5,30.12,South,175,2.0,2.0,58,0.00,CLR,SKC,0.00,WeatherDisplay:10.37,2013-04-15 21:12:00,
2013-04-15 17:17:00,63.5,48.5,30.12,SSW,192,3.0,3.0,58,0.00,CLR,SKC,0.00,WeatherDisplay:10.37,2013-04-15 21:17:00,
2013-04-15 17:22:00,63.3,48.3,30.12,SSW,193,3.4,3.4,58,0.00,CLR,SKC,0.00,WeatherDisplay:10.37,2013-04-15 21:22:00,
2013-04-15 17:27:00,63.2,48.6,30.12,South,188,2.3,2.3,59,0.00,CLR,SKC,0.00,WeatherDisplay:10.37,2013-04-15 21:27:00,
2013-04-15 17:32:00,63.1,48.5,30.12,South,191,4.0,4.0,59,0.00,CLR,SKC,0.00,WeatherDisplay:10.37,2013-04-15 21:32:00,
2013-04-15 17:37:00,63.1,48.5,30.12,SW,224,1.1,1.1,59,0.00,CLR,SKC,0.00,WeatherDisplay:10.37,2013-04-15 21:37:00,
2013-04-15 17:42:00,63.1,48.5,30.12,SSW,202,5.0,5.0,59,0.00,CLR,SKC,0.00,WeatherDisplay:10.37,2013-04-15 21:42:00,
2013-04-15 17:47:00,63.1,48.5,30.12,South,188,2.0,2.0,59,0.00,CLR,SKC,0.00,WeatherDisplay:10.37,2013-04-15 21:47:00,
2013-04-15 17:52:00,63.0,48.4,30.13,South,175,4.6,4.6,59,0.00,CLR,SKC,0.00,WeatherDisplay:10.37,2013-04-15 21:52:00,
2013-04-15 17:57:00,62.9,48.8,30.13,SSE,156,2.3,2.3,60,0.00,CLR,SKC,0.00,WeatherDisplay:10.37,2013-04-15 21:57:00,
2013-04-15 18:02:00,62.8,48.3,30.13,SSW,194,2.0,2.0,59,0.00,CLR,SKC,0.00,WeatherDisplay:10.37,2013-04-15 22:02:00,
2013-04-15 18:07:00,62.8,47.8,30.13,SSW,212,3.4,3.4,58,0.00,CLR,SKC,0.00,WeatherDisplay:10.37,2013-04-15 22:07:00,
2013-04-15 18:12:00,62.7,47.7,30.13,SSW,192,3.4,3.4,58,0.00,CLR,SKC,0.00,WeatherDisplay:10.37,2013-04-15 22:12:00,
2013-04-15 18:17:00,62.6,47.6,30.13,South,188,5.8,5.8,58,0.00,CLR,SKC,0.00,WeatherDisplay:10.37,2013-04-15 22:17:00,
2013-04-15 18:22:00,62.4,47.4,30.13,South,184,5.8,5.8,58,0.00,CLR,SKC,0.00,WeatherDisplay:10.37,2013-04-15 22:22:00,
2013-04-15 18:27:00,62.3,47.3,30.13,SSW,199,2.3,2.3,58,0.00,CLR,SKC,0.00,WeatherDisplay:10.37,2013-04-15 22:27:00,
2013-04-15 18:32:00,62.2,47.2,30.14,South,174,3.4,3.4,58,0.00,CLR,SKC,0.00,WeatherDisplay:10.37,2013-04-15 22:32:00,
2013-04-15 18:37:00,62.1,47.1,30.13,South,191,4.6,4.6,58,0.00,CLR,SKC,0.00,WeatherDisplay:10.37,2013-04-15 22:37:00,
2013-04-15 18:42:00,62.0,47.0,30.14,South,180,4.6,4.6,58,0.00,CLR,SKC,0.00,WeatherDisplay:10.37,2013-04-15 22:42:00,
2013-04-15 18:47:00,61.9,46.5,30.14,SSW,196,3.4,3.4,57,0.00,CLR,SKC,0.00,WeatherDisplay:10.37,2013-04-15 22:47:00,
2013-04-15 18:52:00,61.7,45.8,30.14,SSW,200,3.4,3.4,56,0.00,CLR,SKC,0.00,WeatherDisplay:10.37,2013-04-15 22:52:00,
2013-04-15 18:57:00,61.6,45.3,30.14,South,182,2.3,2.3,55,0.00,CLR,SKC,0.00,WeatherDisplay:10.37,2013-04-15 22:57:00,
2013-04-15 19:02:00,61.4,45.1,30.14,SSW,196,3.4,3.4,55,0.00,CLR,SKC,0.00,WeatherDisplay:10.37,2013-04-15 23:02:00,
2013-04-15 19:07:00,61.3,45.0,30.14,SSW,209,5.8,5.8,55,0.00,CLR,SKC,0.00,WeatherDisplay:10.37,2013-04-15 23:07:00,
2013-04-15 19:12:00,61.1,45.3,30.14,SSW,205,2.3,2.3,56,0.00,CLR,SKC,0.00,WeatherDisplay:10.37,2013-04-15 23:12:00,
2013-04-15 19:17:00,60.9,45.1,30.14,SW,215,5.8,5.8,56,0.00,CLR,SKC,0.00,WeatherDisplay:10.37,2013-04-15 23:17:00,
2013-04-15 19:22:00,60.8,45.0,30.14,South,179,6.9,6.9,56,0.00,CLR,SKC,0.00,WeatherDisplay:10.37,2013-04-15 23:22:00,
2013-04-15 19:27:00,60.7,45.4,30.14,South,190,2.3,2.3,57,0.00,CLR,SKC,0.00,WeatherDisplay:10.37,2013-04-15 23:27:00,
2013-04-15 19:32:00,60.5,45.2,30.14,SSW,202,3.4,3.4,57,0.00,CLR,SKC,0.00,WeatherDisplay:10.37,2013-04-15 23:32:00,
2013-04-15 19:37:00,60.4,45.1,30.13,South,173,2.3,2.3,57,0.00,CLR,SKC,0.00,WeatherDisplay:10.37,2013-04-15 23:37:00,
2013-04-15 19:42:00,60.3,45.5,30.13,South,190,3.4,3.4,58,0.00,CLR,SKC,0.00,WeatherDisplay:10.37,2013-04-15 23:42:00,
2013-04-15 19:47:00,60.1,45.7,30.14,South,185,2.3,2.3,59,0.00,CLR,SKC,0.00,WeatherDisplay:10.37,2013-04-15 23:47:00,
2013-04-15 19:52:00,60.0,45.6,30.14,South,189,1.1,1.1,59,0.00,CLR,SKC,0.00,WeatherDisplay:10.37,2013-04-15 23:52:00,
2013-04-15 19:57:00,59.9,45.5,30.14,SSW,213,3.0,3.0,59,0.00,CLR,SKC,0.00,WeatherDisplay:10.37,2013-04-15 23:57:00,
2013-04-15 20:02:00,59.7,45.3,30.14,SSE,157,1.1,1.1,59,0.00,CLR,SKC,0.00,WeatherDisplay:10.37,2013-04-16 00:02:00,
2013-04-15 20:07:00,59.5,45.6,30.14,SSW,192,4.0,4.0,60,0.00,CLR,SKC,0.00,WeatherDisplay:10.37,2013-04-16 00:07:00,
2013-04-15 20:12:00,59.4,45.9,30.14,SSW,196,4.6,4.6,61,0.00,CLR,SKC,0.00,WeatherDisplay:10.37,2013-04-16 00:12:00,
2013-04-15 20:17:00,59.3,45.8,30.14,SSW,198,4.6,4.6,61,0.00,CLR,SKC,0.00,WeatherDisplay:10.37,2013-04-16 00:17:00,
2013-04-15 20:22:00,59.3,46.3,30.14,SSW,199,1.1,0.0,62,0.00,CLR,SKC,0.00,WeatherDisplay:10.37,2013-04-16 00:22:00,
2013-04-15 20:27:00,59.1,46.1,30.14,South,191,3.4,3.4,62,0.00,CLR,SKC,0.00,WeatherDisplay:10.37,2013-04-16 00:27:00,
2013-04-15 20:32:00,59.0,46.0,30.15,SSE,148,6.0,6.0,62,0.00,CLR,SKC,0.00,WeatherDisplay:10.37,2013-04-16 00:32:00,
2013-04-15 20:37:00,58.9,46.3,30.15,SSW,198,0.0,0.0,63,0.00,CLR,SKC,0.00,WeatherDisplay:10.37,2013-04-16 00:37:00,
2013-04-15 20:42:00,58.9,46.3,30.15,SSW,209,3.4,3.4,63,0.00,CLR,SKC,0.00,WeatherDisplay:10.37,2013-04-16 00:42:00,
2013-04-15 20:47:00,58.8,46.6,30.15,SSW,193,4.6,4.6,64,0.00,CLR,SKC,0.00,WeatherDisplay:10.37,2013-04-16 00:47:00,
2013-04-15 20:52:00,58.7,46.5,30.16,SW,225,5.8,5.8,64,0.00,CLR,SKC,0.00,WeatherDisplay:10.37,2013-04-16 00:52:00,
2013-04-15 20:57:00,58.6,46.9,30.16,South,188,3.4,3.4,65,0.00,CLR,SKC,0.00,WeatherDisplay:10.37,2013-04-16 00:57:00,
2013-04-15 21:02:00,58.4,46.7,30.16,SSW,198,1.1,1.1,65,0.00,CLR,SKC,0.00,WeatherDisplay:10.37,2013-04-16 01:02:00,
2013-04-15 21:07:00,58.3,47.0,30.16,SSW,202,5.8,5.8,66,0.00,CLR,SKC,0.00,WeatherDisplay:10.37,2013-04-16 01:07:00,
2013-04-15 21:12:00,58.1,46.8,30.17,SW,215,3.4,0.0,66,0.00,CLR,SKC,0.00,WeatherDisplay:10.37,2013-04-16 01:12:00,
2013-04-15 21:17:00,58.0,47.1,30.17,South,177,1.1,0.0,67,0.00,CLR,SKC,0.00,WeatherDisplay:10.37,2013-04-16 01:17:00,
2013-04-15 21:22:00,57.9,47.0,30.17,South,180,2.3,2.3,67,0.00,CLR,SKC,0.00,WeatherDisplay:10.37,2013-04-16 01:22:00,
2013-04-15 21:27:00,57.8,47.3,30.17,SSW,212,3.4,3.4,68,0.00,CLR,SKC,0.00,WeatherDisplay:10.37,2013-04-16 01:27:00,
2013-04-15 21:32:00,57.7,47.2,30.17,SSW,203,3.4,3.4,68,0.00,CLR,SKC,0.00,WeatherDisplay:10.37,2013-04-16 01:32:00,
2013-04-15 21:37:00,57.5,47.0,30.18,SSE,159,5.8,5.8,68,0.00,CLR,SKC,0.00,WeatherDisplay:10.37,2013-04-16 01:37:00,
2013-04-15 21:42:00,57.4,46.9,30.18,SSW,198,2.3,2.3,68,0.00,CLR,SKC,0.00,WeatherDisplay:10.37,2013-04-16 01:42:00,
2013-04-15 21:47:00,57.3,46.8,30.18,South,178,3.4,3.4,68,0.00,CLR,SKC,0.00,WeatherDisplay:10.37,2013-04-16 01:47:00,
2013-04-15 21:52:00,57.3,46.8,30.18,South,172,1.1,1.1,68,0.00,CLR,SKC,0.00,WeatherDisplay:10.37,2013-04-16 01:52:00,
2013-04-15 21:57:00,57.2,46.7,30.18,South,188,3.4,3.4,68,0.00,CLR,SKC,0.00,WeatherDisplay:10.37,2013-04-16 01:57:00,
2013-04-15 22:02:00,57.1,46.6,30.18,SSE,160,0.0,0.0,68,0.00,CLR,SKC,0.00,WeatherDisplay:10.37,2013-04-16 02:02:00,
2013-04-15 22:07:00,57.1,46.6,30.18,South,177,2.3,2.3,68,0.00,CLR,SKC,0.00,WeatherDisplay:10.37,2013-04-16 02:07:00,
2013-04-15 22:12:00,57.0,46.5,30.18,South,171,0.0,0.0,68,0.00,CLR,SKC,0.00,WeatherDisplay:10.37,2013-04-16 02:12:00,
2013-04-15 22:17:00,56.9,46.8,30.19,South,171,1.1,0.0,69,0.00,CLR,SKC,0.00,WeatherDisplay:10.37,2013-04-16 02:17:00,
2013-04-15 22:22:00,56.7,46.3,30.19,South,186,1.1,1.1,68,0.00,CLR,SKC,0.00,WeatherDisplay:10.37,2013-04-16 02:22:00,
2013-04-15 22:27:00,56.6,45.8,30.19,SSE,165,2.3,2.3,67,0.00,CLR,SKC,0.00,WeatherDisplay:10.37,2013-04-16 02:27:00,
2013-04-15 22:32:00,56.5,45.7,30.19,South,188,2.3,2.3,67,0.00,CLR,SKC,0.00,WeatherDisplay:10.37,2013-04-16 02:32:00,
2013-04-15 22:37:00,56.3,45.5,30.19,SSW,193,4.6,4.6,67,0.00,CLR,SKC,0.00,WeatherDisplay:10.37,2013-04-16 02:37:00,
2013-04-15 22:42:00,56.2,45.4,30.18,South,186,1.1,1.1,67,0.00,CLR,SKC,0.00,WeatherDisplay:10.37,2013-04-16 02:42:00,
2013-04-15 22:47:00,56.0,45.2,30.19,WSW,256,3.4,3.4,67,0.00,CLR,SKC,0.00,WeatherDisplay:10.37,2013-04-16 02:47:00,
2013-04-15 22:52:00,55.9,45.1,30.18,SSW,196,5.8,5.8,67,0.00,CLR,SKC,0.00,WeatherDisplay:10.37,2013-04-16 02:52:00,
2013-04-15 22:57:00,55.7,44.9,30.18,South,175,5.8,5.8,67,0.00,CLR,SKC,0.00,WeatherDisplay:10.37,2013-04-16 02:57:00,
2013-04-15 23:02:00,55.6,44.8,30.19,SSE,157,3.4,3.4,67,0.00,CLR,SKC,0.00,WeatherDisplay:10.37,2013-04-16 03:02:00,
2013-04-15 23:07:00,55.5,44.7,30.19,SSE,155,4.6,4.6,67,0.00,CLR,SKC,0.00,WeatherDisplay:10.37,2013-04-16 03:07:00,
2013-04-15 23:12:00,55.4,44.6,30.19,SSW,209,6.9,6.9,67,0.00,CLR,SKC,0.00,WeatherDisplay:10.37,2013-04-16 03:12:00,
2013-04-15 23:17:00,55.3,44.9,30.19,SSE,158,2.3,2.3,68,0.00,CLR,SKC,0.00,WeatherDisplay:10.37,2013-04-16 03:17:00,
2013-04-15 23:22:00,55.2,44.8,30.19,South,184,3.4,3.4,68,0.00,CLR,SKC,0.00,WeatherDisplay:10.37,2013-04-16 03:22:00,
2013-04-15 23:27:00,55.2,44.8,30.19,SW,215,3.4,3.4,68,0.00,CLR,SKC,0.00,WeatherDisplay:10.37,2013-04-16 03:27:00,
2013-04-15 23:32:00,55.1,44.7,30.19,South,182,3.4,3.4,68,0.00,CLR,SKC,0.00,WeatherDisplay:10.37,2013-04-16 03:32:00,
2013-04-15 23:37:00,55.0,45.0,30.19,SSE,148,4.6,4.6,69,0.00,CLR,SKC,0.00,WeatherDisplay:10.37,2013-04-16 03:37:00,
2013-04-15 23:42:00,54.9,44.5,30.19,SSW,209,5.0,5.0,68,0.00,CLR,SKC,0.00,WeatherDisplay:10.37,2013-04-16 03:42:00,
2013-04-15 23:47:00,54.9,44.9,30.19,South,174,2.3,0.0,69,0.00,CLR,SKC,0.00,WeatherDisplay:10.37,2013-04-16 03:47:00,
2013-04-15 23:52:00,54.8,44.8,30.19,SSW,197,0.0,0.2,69,0.00,CLR,SKC,0.00,WeatherDisplay:10.37,2013-04-16 03:52:00,
2013-04-15 23:57:00,54.8,44.8,30.19,South,182,5.8,5.8,69,0.00,CLR,SKC,0.00,WeatherDisplay:10.37,2013-04-16 03:57:00,